User: anonymous   Login
Location: Oshawa
(43.9000°N, 78.8670°W)
Time: 11:32:32
(UTC-05:00)
Language:

ITAMSAT 1 - Orbit

View from above orbital plane
View from above orbital plane
View from above satellite
View from above satellite

Ground track
Ground track

The orbit data is extracted from the following two-line orbital elements,

1 22826U 93061D   14326.09134152  .00000264  00000-0  11949-3 0  5816
2 22826 098.6768 271.6636 0009082 180.4170 179.7006 14.30092942103487
Epoch (UTC): 22 November 2014 02:11:31
Eccentricity: 0.0009082
inclination: 98.6768°
perigee height: 785 km
apogee height: 798 km
right ascension of ascending node: 271.6636°
argument of perigee: 180.4170°
revolutions per day: 14.30092942
mean anomaly at epoch: 179.7006°
orbit number at epoch: 10348

The dashed part of the orbit path shows where the satellite is in the earth's shadow,  

DLR